{"data":{"norad_id":57290,"epoch":"2026-09-20T13:35:19.672224Z","epoch_age_seconds":118503,"freshness":"FRESH","line1":"1 57290U 23096A   26263.56619991  .00039837  00000+0  12494-2 0  9999","line2":"2 57290  42.9834 205.6076 0013479 155.3123 204.8378 15.32302066177381","mean_motion":15.32302066,"eccentricity":0.0013479,"inclination_deg":42.9834,"raan_deg":205.6076,"arg_perigee_deg":155.3123,"mean_anomaly_deg":204.8378,"bstar":0.0012494,"rev_number":17738,"period_min":93.97624867524,"perigee_km":459.71667250097,"apogee_km":478.17503846277,"semimajor_km":6847.0828554819,"source":"CELESTRAK","updated_at":"2026-09-21T09:00:33.594139Z"}}